TimeEST,TemperatureF,Dew PointF,Humidity,Sea Level PressureIn,VisibilityMPH,Wind Direction,Wind SpeedMPH,Gust SpeedMPH,PrecipitationIn,Events,Conditions,WindDirDegrees,DateUTC
12:51 AM,35.1,21.0,57,29.79,10.0,SW,8.1,-,N/A,,Overcast,220,2013-01-01 05:51:00
1:51 AM,35.1,21.0,57,29.80,10.0,SW,6.9,-,N/A,,Overcast,230,2013-01-01 06:51:00
2:51 AM,35.1,21.9,59,29.79,10.0,SSW,5.8,-,N/A,,Overcast,210,2013-01-01 07:51:00
3:51 AM,34.0,21.9,61,29.78,10.0,SSW,8.1,-,N/A,,Scattered Clouds,200,2013-01-01 08:51:00
4:51 AM,34.0,23.0,64,29.78,10.0,SW,8.1,-,N/A,,Partly Cloudy,220,2013-01-01 09:51:00
5:51 AM,33.1,23.0,66,29.79,10.0,SSW,6.9,-,N/A,,Scattered Clouds,210,2013-01-01 10:51:00
6:51 AM,32.0,23.0,69,29.80,10.0,SW,5.8,-,N/A,,Mostly Cloudy,230,2013-01-01 11:51:00
7:51 AM,32.0,23.0,69,29.81,10.0,West,9.2,-,N/A,,Mostly Cloudy,280,2013-01-01 12:51:00
8:51 AM,34.0,23.0,64,29.83,10.0,WNW,9.2,-,0.00,,Mostly Cloudy,290,2013-01-01 13:51:00
9:51 AM,34.0,19.9,56,29.86,10.0,WNW,17.3,24.2,N/A,,Mostly Cloudy,300,2013-01-01 14:51:00
10:51 AM,34.0,19.0,54,29.85,10.0,WNW,19.6,23.0,N/A,,Mostly Cloudy,300,2013-01-01 15:51:00
11:51 AM,34.0,19.0,54,29.83,10.0,WNW,10.4,-,N/A,,Mostly Cloudy,290,2013-01-01 16:51:00
12:51 PM,35.1,18.0,50,29.81,10.0,NW,10.4,-,N/A,,Mostly Cloudy,320,2013-01-01 17:51:00
1:51 PM,33.1,17.1,52,29.82,10.0,NNW,13.8,20.7,N/A,,Mostly Cloudy,330,2013-01-01 18:51:00
2:51 PM,30.9,14.0,50,29.83,10.0,WNW,18.4,21.9,N/A,,Mostly Cloudy,290,2013-01-01 19:51:00
3:51 PM,30.0,12.0,47,29.84,10.0,NW,12.7,20.7,N/A,,Mostly Cloudy,320,2013-01-01 20:51:00
4:51 PM,28.9,10.9,47,29.87,10.0,NW,12.7,-,N/A,,Mostly Cloudy,310,2013-01-01 21:51:00
5:51 PM,27.0,12.0,53,29.90,10.0,NW,5.8,-,N/A,,Mostly Cloudy,320,2013-01-01 22:51:00
6:51 PM,26.1,9.0,49,29.93,10.0,NW,11.5,23.0,N/A,,Overcast,310,2013-01-01 23:51:00
7:51 PM,24.1,5.0,44,29.94,10.0,WNW,12.7,25.3,N/A,,Partly Cloudy,300,2013-01-02 00:51:00
8:51 PM,21.9,5.0,48,29.94,10.0,NW,11.5,-,N/A,,Partly Cloudy,320,2013-01-02 01:51:00
9:51 PM,21.0,6.1,53,29.96,10.0,NNW,9.2,-,N/A,,Partly Cloudy,330,2013-01-02 02:51:00
10:51 PM,19.0,7.0,59,29.98,10.0,NW,11.5,-,N/A,,Partly Cloudy,310,2013-01-02 03:51:00
11:51 PM,19.0,7.0,59,29.98,10.0,NNW,4.6,-,N/A,,Partly Cloudy,330,2013-01-02 04:51:00